"Timestamp","TZ","WindDir_Mean (deg)","WindSpd_Mean (km/h)","WindSpd_Min (km/h)","WindSpd_Max (km/h)","Temp_Mean (deg)","RH_Mean (%)","MSLP_Mean (hPa)","Rain_Acc (mm)","Rain_Intensity (mm/h)","Hail_Acc (hits/cm2)","Hail_Intensity (hits/cm2hr)","Solar_Mean (W/m2)"
2022/05/19 00:00:00.005,n,171,7.2,3.96,9,20.1,85.5,1019.72,0,0,0,0,0.023499
2022/05/19 00:01:00.002,n,177,6.12,3.24,7.92,20.1,85.5,1019.72,0,0,0,0,0.022621
2022/05/19 00:02:00.000,n,178,5.76,2.52,7.92,20.1,85.5,1019.82,0,0,0,0,0.024376
2022/05/19 00:03:00.000,n,190,3.24,2.52,7.2,20.1,85.6,1019.82,0,0,0,0,0.024376
2022/05/19 00:04:00.000,n,199,2.52,2.52,2.52,20.1,85.5,1019.82,0,0,0,0,0.021782
2022/05/19 00:05:00.006,n,210,2.88,2.52,4.68,20.1,85.4,1019.82,0,0,0,0,0.024376
2022/05/19 00:06:00.004,n,148,4.32,2.52,7.2,20.1,85.5,1019.82,0,0,0,0,0.020905
2022/05/19 00:07:00.000,n,164,5.76,2.16,6.84,20,85.5,1019.82,0,0,0,0,0.020905
2022/05/19 00:08:00.014,n,150,3.24,2.52,7.92,20,85.5,1019.82,0,0,0,0,0.021782
2022/05/19 00:09:00.011,n,126,1.44,1.08,1.44,20,85.6,1019.82,0,0,0,0,0.021782
2022/05/19 00:10:00.000,n,167,3.24,0.72,5.76,20,85.7,1019.82,0,0,0,0,0.017395
2022/05/19 00:11:00.000,n,134,4.32,3.96,5.04,20,85.8,1019.82,0,0,0,0,0.02697
2022/05/19 00:12:00.000,n,149,5.04,2.16,8.64,20,85.9,1019.82,0,0,0,0,0.032196
2022/05/19 00:13:00.000,n,176,6.84,4.32,9.72,20,85.9,1019.82,0,0,0,0,0.032196
2022/05/19 00:14:00.000,n,167,6.48,3.24,9,20,85.9,1019.82,0,0,0,0,0.029602
2022/05/19 00:15:00.005,n,153,3.24,1.8,4.68,20,85.9,1019.82,0,0,0,0,0.02697
2022/05/19 00:16:00.003,n,169,5.4,2.16,8.28,20,85.9,1019.72,0,0,0,0,0.030479
2022/05/19 00:17:00.000,n,157,3.96,3.96,4.32,20,85.9,1019.72,0,0,0,0,0.028725
2022/05/19 00:18:00.014,n,159,8.28,5.76,11.52,20,86,1019.72,0,0,0,0,0.028725
2022/05/19 00:19:00.000,n,158,6.12,3.96,10.440002,20,86,1019.72,0,0,0,0,0.030479
2022/05/19 00:20:00.000,n,154,2.88,0.72,6.84,19.9,86,1019.72,0,0,0,0,0.031319
2022/05/19 00:21:00.005,n,247,1.8,0.72,5.04,19.9,86.1,1019.82,0,0,0,0,0.026093
2022/05/19 00:22:00.003,n,183,2.88,1.8,5.76,19.9,86.1,1019.82,0,0,0,0,0.02697
2022/05/19 00:23:00.000,n,222,2.16,1.08,3.96,19.9,86.1,1019.82,0,0,0,0,0.029602
2022/05/19 00:24:00.000,n,53,0.72,0.36,1.08,19.9,86.2,1019.82,0,0,0,0,0.025253
2022/05/19 00:25:00.010,n,150,0.72,0,5.4,19.9,86.2,1019.82,0,0,0,0,0.024376
2022/05/19 00:26:00.007,n,340,3.96,1.44,6.12,19.9,86.2,1019.82,0,0,0,0,0.027847
2022/05/19 00:27:00.003,n,241,1.44,0.36,5.4,19.9,86.1,1019.82,0,0,0,0,0.025253
2022/05/19 00:28:00.001,n,223,2.16,1.44,3.96,19.9,86.3,1019.92,0,0,0,0,0.023499
2022/05/19 00:29:00.000,n,210,3.24,1.08,9,19.9,86.4,1019.92,0,0,0,0,0.024376
2022/05/19 00:30:00.000,n,217,3.6,2.88,4.32,19.9,86.4,1019.92,0,0,0,0,0.024376
2022/05/19 00:31:00.000,n,167,2.52,0.72,5.04,19.9,86.4,1020.02,0,0,0,0,0.024376
2022/05/19 00:32:00.006,n,295,2.16,1.44,2.88,19.9,86.4,1020.02,0,0,0,0,0.025253
2022/05/19 00:33:00.004,n,179,2.88,1.08,3.6,19.9,86.7,1020.02,0,0,0,0,0.023499
2022/05/19 00:34:00.002,n,252,3.24,1.44,3.96,20,86.8,1020.02,0,0,0,0,0.023499
2022/05/19 00:35:00.000,n,271,3.24,2.88,3.6,20,86.5,1020.02,0,0,0,0,0.021744
2022/05/19 00:36:00.012,n,275,3.6,3.24,3.96,19.9,86.3,1020.02,0,0,0,0,0.024376
2022/05/19 00:37:00.000,n,274,4.68,4.32,5.04,19.9,86.2,1020.02,0,0,0,0,0.02697
2022/05/19 00:38:00.000,n,254,2.52,1.08,3.24,19.9,86.5,1020.02,0,0,0,0,0.025253
2022/05/19 00:39:00.004,n,198,2.88,1.8,3.96,19.9,86.7,1020.02,0,0,0,0,0.022621
2022/05/19 00:40:00.001,n,181,2.52,1.44,3.6,19.9,86.4,1020.02,0,0,0,0,0.020905
2022/05/19 00:41:00.000,n,259,2.52,1.08,4.32,19.9,86.3,1020.02,0,0,0,0,0.020905
2022/05/19 00:42:00.000,n,246,3.6,1.44,4.68,19.9,86.2,1020.02,0,0,0,0,0.027847
2022/05/19 00:43:00.007,n,133,1.44,0.36,2.88,19.8,86.2,1020.02,0,0,0,0,0.021744
2022/05/19 00:44:00.005,n,236,4.68,1.44,5.04,19.8,86.5,1020.02,0,0,0,0,0.025253
2022/05/19 00:45:00.002,n,235,5.04,3.96,9,19.8,86.2,1020.02,0,0,0,0,0.02697
2022/05/19 00:46:00.000,n,257,5.4,4.68,5.76,19.8,86.1,1020.02,0,0,0,0,0.021744
2022/05/19 00:47:00.000,n,253,4.32,0.72,5.04,19.7,86.1,1020.02,0,0,0,0,0.01915
2022/05/19 00:48:00.002,n,269,4.68,4.32,4.68,19.7,86.2,1020.02,0,0,0,0,0.024376
2022/05/19 00:49:00.003,n,271,4.32,3.96,4.68,19.7,86.1,1020.02,0,0,0,0,0.022621
2022/05/19 00:50:00.000,n,269,5.04,4.68,5.4,19.6,86.2,1020.02,0,0,0,0,0.021744
2022/05/19 00:51:00.007,n,271,4.32,3.96,4.32,19.6,86.3,1020.02,0,0,0,0,0.026093
2022/05/19 00:52:00.004,n,223,3.6,2.16,5.76,19.7,87,1020.02,0,0,0,0,0.029602
2022/05/19 00:53:00.001,n,265,5.76,4.68,6.84,19.8,87,1020.02,0,0,0,0,0.031319
2022/05/19 00:54:00.015,n,261,6.12,5.04,7.2,19.8,86.8,1020.02,0,0,0,0,0.032196
2022/05/19 00:55:00.000,n,262,5.76,4.32,6.12,19.8,86.7,1020.02,0,0,0,0,0.024376
2022/05/19 00:56:00.000,n,278,5.04,3.96,5.76,19.8,86.8,1020.02,0,0,0,0,0.026093
2022/05/19 00:57:00.000,n,293,3.6,2.52,4.32,19.8,86.8,1020.02,0,0,0,0,0.024376
2022/05/19 00:58:00.004,n,277,4.68,4.32,4.68,19.8,86.6,1020.02,0,0,0,0,0.022621
2022/05/19 00:59:00.002,n,120,2.16,1.8,3.6,19.7,86.4,1020.02,0,0,0,0,0.023499
2022/05/19 01:00:00.000,n,246,2.88,2.52,3.24,19.6,86.3,1020.02,0,0,0,0,0.022621
2022/05/19 01:01:00.012,n,255,2.88,2.52,2.88,19.6,86.4,1020.02,0,0,0,0,0.020027
2022/05/19 01:02:00.010,n,178,2.52,1.44,2.88,19.6,86.4,1019.92,0,0,0,0,0.018311
2022/05/19 01:03:00.006,n,242,2.52,2.52,2.52,19.6,86.6,1019.92,0,0,0,0,0.022621
2022/05/19 01:04:00.000,n,128,3.96,1.44,5.04,19.6,86.6,1019.92,0,0,0,0,0.01915
2022/05/19 01:05:00.000,n,249,0.72,0.36,1.08,19.6,86.8,1019.82,0,0,0,0,0.027008
2022/05/19 01:06:00.000,n,158,6.84,6.48,7.2,19.6,86.8,1019.82,0,0,0,0,0.033951
2022/05/19 01:07:00.006,n,206,3.6,3.24,4.68,19.6,86.7,1019.82,0,0,0,0,0.033112
2022/05/19 01:08:00.004,n,180,5.4,2.88,8.28,19.6,86.7,1019.72,0,0,0,0,0.031357
2022/05/19 01:09:00.001,n,162,7.56,3.6,8.64,19.6,86.7,1019.72,0,0,0,0,0.031357
2022/05/19 01:10:00.000,n,173,7.56,5.04,10.440002,19.6,86.8,1019.72,0,0,0,0,0.032234
2022/05/19 01:11:00.013,n,168,8.64,7.92,9.36,19.6,86.8,1019.62,0,0,0,0,0.029602
2022/05/19 01:12:00.011,n,159,5.76,3.6,8.64,19.6,86.9,1019.62,0,0,0,0,0.027885
2022/05/19 01:13:00.000,n,155,5.4,4.32,9.72,19.6,86.8,1019.62,0,0,0,0,0.028763
2022/05/19 01:14:00.000,n,142,4.68,3.96,6.12,19.6,86.8,1019.62,0,0,0,0,0.030479
2022/05/19 01:15:00.002,n,167,7.56,4.68,9.72,19.5,86.8,1019.62,0,0,0,0,0.028763
2022/05/19 01:16:00.000,n,186,6.48,3.96,8.28,19.5,86.7,1019.62,0,0,0,0,0.026131
2022/05/19 01:17:00.000,n,176,7.2,3.96,9,19.5,86.8,1019.62,0,0,0,0,0.027008
2022/05/19 01:18:00.010,n,161,6.84,3.96,9,19.5,86.8,1019.62,0,0,0,0,0.027885
2022/05/19 01:19:00.007,n,161,7.2,6.84,7.56,19.5,86.8,1019.62,0,0,0,0,0.027885
2022/05/19 01:20:00.004,n,154,3.6,1.8,6.84,19.5,86.8,1019.62,0,0,0,0,0.024376
2022/05/19 01:21:00.002,n,116,5.4,5.04,6.12,19.5,86.8,1019.62,0,0,0,0,0.023537
2022/05/19 01:22:00.000,n,163,6.48,3.24,9.36,19.5,86.9,1019.72,0,0,0,0,0.022659
2022/05/19 01:23:00.000,n,107,2.16,0.72,3.24,19.5,86.9,1019.72,0,0,0,0,0.024376
2022/05/19 01:24:00.000,n,129,1.08,0.72,2.16,19.5,86.9,1019.72,0,0,0,0,0.021782
2022/05/19 01:25:00.007,n,159,5.76,3.24,7.56,19.5,86.9,1019.72,0,0,0,0,0.023537
2022/05/19 01:26:00.005,n,150,4.32,2.52,6.48,19.5,86.9,1019.82,0,0,0,0,0.019188
2022/05/19 01:27:00.002,n,123,5.04,3.24,6.12,19.5,87,1019.72,0,0,0,0,0.026093
2022/05/19 01:28:00.010,n,149,5.76,3.24,9.36,19.5,87,1019.72,0,0,0,0,0.030479
2022/05/19 01:29:00.008,n,147,4.32,1.08,6.12,19.4,87,1019.72,0,0,0,0,0.027847
2022/05/19 01:30:00.005,n,188,4.68,2.16,6.84,19.5,87.1,1019.82,0,0,0,0,0.027847
2022/05/19 01:31:00.002,n,201,3.24,1.44,7.2,19.5,87,1019.82,0,0,0,0,0.027847
2022/05/19 01:32:00.000,n,128,1.44,0.72,4.68,19.4,87,1019.82,0,0,0,0,0.027847
2022/05/19 01:33:00.000,n,279,2.88,1.44,3.6,19.4,87,1019.82,0,0,0,0,0.022621
2022/05/19 01:34:00.000,n,205,1.08,0.36,2.16,19.4,87.1,1019.82,0,0,0,0,0.027847
2022/05/19 01:35:00.004,n,127,4.68,2.16,6.12,19.5,87.1,1019.82,0,0,0,0,0.024376
2022/05/19 01:36:00.001,n,244,2.16,1.08,4.68,19.5,87.1,1019.82,0,0,0,0,0.027847
2022/05/19 01:37:00.000,n,61,2.16,0.36,5.76,19.5,87.1,1019.72,0,0,0,0,0.027847
2022/05/19 01:38:00.011,n,10,1.8,1.08,3.96,19.5,87.2,1019.72,0,0,0,0,0.028687
2022/05/19 01:39:00.008,n,163,2.88,1.44,3.96,19.5,87.3,1019.72,0,0,0,0,0.026093
2022/05/19 01:40:00.000,n,11,2.16,1.08,3.96,19.5,87.2,1019.72,0,0,0,0,0.026093
2022/05/19 01:41:00.002,n,309,2.16,1.08,3.24,19.5,87.2,1019.72,0,0,0,0,0.02697
2022/05/19 01:42:00.000,n,278,5.04,3.96,6.12,19.5,87.1,1019.62,0,0,0,0,0.029602
2022/05/19 01:43:00.000,n,35,1.44,0,5.4,19.5,87.2,1019.62,0,0,0,0,0.027847
2022/05/19 01:44:00.000,n,179,1.08,0,5.04,19.5,87.1,1019.62,0,0,0,0,0.030479
2022/05/19 01:45:00.006,n,175,1.8,0.72,4.32,19.5,87.1,1019.62,0,0,0,0,0.024376
2022/05/19 01:46:00.005,n,207,1.8,0.36,4.32,19.5,87,1019.62,0,0,0,0,0.030479
2022/05/19 01:47:00.002,n,153,3.6,1.44,5.4,19.5,87.1,1019.62,0,0,0,0,0.029602
2022/05/19 01:48:00.015,n,189,2.52,0.72,4.68,19.5,87,1019.62,0,0,0,0,0.02697
2022/05/19 01:49:00.000,n,213,2.52,1.8,4.68,19.5,87,1019.62,0,0,0,0,0.031319
2022/05/19 01:50:00.000,n,135,1.08,0.36,4.68,19.5,87.2,1019.62,0,0,0,0,0.028687
2022/05/19 01:51:00.000,n,357,2.52,1.8,3.96,19.5,87.3,1019.62,0,0,0,0,0.029602
2022/05/19 01:52:00.004,n,79,1.08,0,2.16,19.6,87.4,1019.62,0,0,0,0,0.031319
2022/05/19 01:53:00.002,n,157,2.52,1.44,3.96,19.6,87.3,1019.62,0,0,0,0,0.032196
2022/05/19 01:54:00.000,n,160,3.24,1.8,4.68,19.6,87.2,1019.62,0,0,0,0,0.030479
2022/05/19 01:55:00.000,n,183,1.44,0,5.04,19.6,87.1,1019.62,0,0,0,0,0.031319
2022/05/19 01:56:00.011,n,191,2.88,2.16,5.4,19.6,87,1019.62,0,0,0,0,0.032196
2022/05/19 01:57:00.008,n,164,3.6,2.16,4.68,19.6,87,1019.62,0,0,0,0,0.031319
2022/05/19 01:58:00.000,n,190,1.08,0.36,4.68,19.5,87,1019.62,0,0,0,0,0.033913
2022/05/19 01:59:00.001,n,160,3.96,1.44,7.56,19.5,87,1019.62,0,0,0,0,0.032196
2022/05/19 02:00:00.000,n,173,4.68,2.88,6.84,19.5,87,1019.62,0,0,0,0,0.029602
2022/05/19 02:01:00.000,n,117,4.68,1.08,5.4,19.5,87,1019.62,0,0,0,0,0.031319
2022/05/19 02:02:00.000,n,309,3.6,0.36,7.92,19.5,87,1019.62,0,0,0,0,0.035667
2022/05/19 02:03:00.006,n,155,3.6,1.08,5.4,19.5,87.1,1019.62,0,0,0,0,0.035667
2022/05/19 02:04:00.003,n,160,1.8,0.72,4.32,19.5,87.2,1019.62,0,0,0,0,0.033913
2022/05/19 02:05:00.000,n,231,3.96,1.8,5.04,19.6,87.1,1019.62,0,0,0,0,0.035667
2022/05/19 02:06:00.013,n,150,4.32,1.44,5.04,19.5,87,1019.72,0,0,0,0,0.037422
2022/05/19 02:07:00.000,n,291,4.68,2.88,5.76,19.6,87.1,1019.72,0,0,0,0,0.033913
2022/05/19 02:08:00.000,n,313,1.8,0.72,3.6,19.6,87.3,1019.72,0,0,0,0,0.037422
2022/05/19 02:09:00.004,n,258,4.68,4.32,5.04,19.6,87.1,1019.72,0,0,0,0,0.036545
2022/05/19 02:10:00.001,n,156,2.16,0.72,4.68,19.6,87,1019.72,0,0,0,0,0.038261
2022/05/19 02:11:00.000,n,211,3.6,2.88,4.68,19.6,86.8,1019.62,0,0,0,0,0.035667
2022/05/19 02:12:00.000,n,81,3.96,0.36,6.12,19.5,86.8,1019.62,0,0,0,0,0.036545
2022/05/19 02:13:00.009,n,298,3.96,2.52,5.76,19.5,86.8,1019.62,0,0,0,0,0.036545
2022/05/19 02:14:00.006,n,292,2.52,2.16,3.24,19.5,86.7,1019.62,0,0,0,0,0.040054
2022/05/19 02:15:00.003,n,225,3.24,1.08,6.48,19.4,86.7,1019.72,0,0,0,0,0.040894
2022/05/19 02:16:00.000,n,218,3.6,2.88,3.96,19.4,86.5,1019.72,0,0,0,0,0.040054
2022/05/19 02:17:00.000,n,167,3.24,2.52,4.32,19.4,86.5,1019.72,0,0,0,0,0.039139
2022/05/19 02:18:00.000,n,277,3.96,1.8,10.08,19.4,86.6,1019.72,0,0,0,0,0.040054
2022/05/19 02:19:00.006,n,297,2.52,2.16,2.88,19.3,86.5,1019.62,0,0,0,0,0.037422
2022/05/19 02:20:00.004,n,294,4.32,3.6,5.04,19.3,86.5,1019.62,0,0,0,0,0.037422
2022/05/19 02:21:00.001,n,327,6.48,3.6,11.16,19.3,86.8,1019.62,0,0,0,0,0.040054
2022/05/19 02:22:00.000,n,191,3.96,2.88,5.76,19.4,86.9,1019.62,0,0,0,0,0.040894
2022/05/19 02:23:00.011,n,259,5.04,1.08,6.12,19.4,86.6,1019.62,0,0,0,0,0.042648
2022/05/19 02:24:00.009,n,241,4.32,2.88,5.04,19.4,86.6,1019.62,0,0,0,0,0.040894
2022/05/19 02:25:00.000,n,251,5.04,4.32,5.76,19.3,86.5,1019.62,0,0,0,0,0.039139
2022/05/19 02:26:00.002,n,179,2.88,1.44,3.6,19.3,86.4,1019.62,0,0,0,0,0.039139
2022/05/19 02:27:00.000,n,274,2.16,1.08,3.96,19.3,86.4,1019.62,0,0,0,0,0.038261
2022/05/19 02:28:00.000,n,149,2.16,1.8,2.52,19.3,86.5,1019.52,0,0,0,0,0.041771
2022/05/19 02:29:00.000,n,239,3.6,2.88,3.6,19.3,86.3,1019.52,0,0,0,0,0.040894
2022/05/19 02:30:00.007,n,175,3.24,1.44,5.4,19.2,86.2,1019.62,0,0,0,0,0.039139
2022/05/19 02:31:00.005,n,274,3.96,3.6,4.32,19.2,86.3,1019.62,0,0,0,0,0.040054
2022/05/19 02:32:00.002,n,185,3.24,2.52,5.04,19.2,86.2,1019.62,0,0,0,0,0.038261
2022/05/19 02:33:00.015,n,190,2.88,2.16,4.32,19.2,86.1,1019.72,0,0,0,0,0.039139
2022/05/19 02:34:00.000,n,212,3.6,0.72,5.04,19.2,86.1,1019.72,0,0,0,0,0.040894
2022/05/19 02:35:00.000,n,241,5.4,2.52,6.48,19.2,86.3,1019.62,0,0,0,0,0.041771
2022/05/19 02:36:00.000,n,187,2.88,2.52,3.96,19.2,86.1,1019.62,0,0,0,0,0.041771
2022/05/19 02:37:00.003,n,247,6.12,5.4,7.56,19.2,86.1,1019.62,0,0,0,0,0.041771
2022/05/19 02:38:00.001,n,241,4.32,2.52,5.04,19.2,86.4,1019.62,0,0,0,0,0.040054
2022/05/19 02:39:00.000,n,180,2.88,1.8,3.96,19.2,86,1019.72,0,0,0,0,0.038261
2022/05/19 02:40:00.011,n,175,3.96,2.88,5.4,19.2,85.9,1019.72,0,0,0,0,0.04612
2022/05/19 02:41:00.008,n,166,3.24,1.44,4.68,19.1,85.9,1019.72,0,0,0,0,0.040894
2022/05/19 02:42:00.005,n,157,4.32,2.16,7.2,19.1,85.8,1019.72,0,0,0,0,0.037422
2022/05/19 02:43:00.002,n,137,2.16,1.8,2.88,19,85.5,1019.72,0,0,0,0,0.040054
2022/05/19 02:44:00.000,n,277,2.16,1.44,2.88,19,85.5,1019.72,0,0,0,0,0.039139
2022/05/19 02:45:00.000,n,239,2.52,1.44,3.24,19,85.4,1019.72,0,0,0,0,0.040894
2022/05/19 02:46:00.000,n,186,2.52,1.44,4.68,18.9,85.4,1019.72,0,0,0,0,0.040894
2022/05/19 02:47:00.006,n,253,2.52,1.8,2.88,18.9,85.4,1019.82,0,0,0,0,0.039139
2022/05/19 02:48:00.004,n,199,4.32,1.44,9,18.9,85.6,1019.82,0,0,0,0,0.042648
2022/05/19 02:49:00.000,n,172,3.96,0.72,6.84,18.9,85.2,1019.82,0,0,0,0,0.040894
2022/05/19 02:50:00.013,n,174,7.2,4.32,10.08,18.9,85,1019.82,0,0,0,0,0.040054
2022/05/19 02:51:00.010,n,160,6.84,2.16,9.36,18.8,84.4,1019.82,0,0,0,0,0.041771
2022/05/19 02:52:00.000,n,114,2.88,2.16,3.6,18.8,84.3,1019.82,0,0,0,0,0.042648
2022/05/19 02:53:00.000,n,93,3.24,2.52,4.32,18.7,84.3,1019.82,0,0,0,0,0.040894
2022/05/19 02:54:00.000,n,173,4.32,3.96,5.4,18.7,84,1019.82,0,0,0,0,0.040894
2022/05/19 02:55:00.000,n,167,6.12,3.6,11.52,18.7,84.1,1019.82,0,0,0,0,0.035667
2022/05/19 02:56:00.000,n,203,2.52,1.8,4.32,18.7,84.1,1019.82,0,0,0,0,0.039139
2022/05/19 02:57:00.007,n,167,7.2,6.12,8.28,18.7,84.2,1019.82,0,0,0,0,0.040054
2022/05/19 02:58:00.004,n,225,3.24,3.24,3.96,18.8,84.2,1019.92,0,0,0,0,0.037422
2022/05/19 02:59:00.001,n,160,2.52,1.8,3.6,18.8,84.4,1019.92,0,0,0,0,0.037422
2022/05/19 03:00:00.015,n,116,2.16,1.8,2.88,18.8,83.8,1019.92,0,0,0,0,0.037422
2022/05/19 03:01:00.000,n,208,2.88,0.72,4.32,18.8,84,1019.92,0,0,0,0,0.038261
2022/05/19 03:02:00.000,n,170,9,5.04,11.52,18.8,83.4,1019.92,0,0,0,0,0.035667
2022/05/19 03:03:00.000,n,192,8.28,5.76,10.8,18.7,82.8,1019.92,0,0,0,0,0.033073
2022/05/19 03:04:00.003,n,205,6.12,4.68,9,18.6,82.5,1019.92,0,0,0,0,0.032196
2022/05/19 03:05:00.000,n,139,1.08,0.36,1.8,18.6,82.3,1019.92,0,0,0,0,0.033073
2022/05/19 03:06:00.000,n,129,1.44,0.72,1.8,18.5,81.9,1019.92,0,0,0,0,0.035667
2022/05/19 03:07:00.011,n,281,2.88,2.52,3.6,18.5,82.2,1019.92,0,0,0,0,0.033913
2022/05/19 03:08:00.009,n,299,2.88,1.44,5.04,18.5,81.9,1019.92,0,0,0,0,0.033073
2022/05/19 03:09:00.005,n,294,3.24,1.08,3.96,18.5,81.5,1019.92,0,0,0,0,0.035667
2022/05/19 03:10:00.000,n,261,2.16,1.8,3.96,18.5,81.7,1020.02,0,0,0,0,0.033913
2022/05/19 03:11:00.001,n,303,3.96,3.6,4.68,18.5,81.7,1020.02,0,0,0,0,0.033073
2022/05/19 03:12:00.000,n,220,2.52,1.8,2.88,18.5,81.4,1020.02,0,0,0,0,0.033073
2022/05/19 03:13:00.000,n,243,3.96,1.08,4.68,18.5,80.9,1020.02,0,0,0,0,0.034828
2022/05/19 03:14:00.007,n,269,2.52,0.36,6.84,18.4,80.8,1020.02,0,0,0,0,0.033913
2022/05/19 03:15:00.005,n,280,0.36,0.36,0.36,18.4,80.9,1020.02,0,0,0,0,0.032196
2022/05/19 03:16:00.002,n,300,0.72,0.36,1.44,18.4,81.1,1020.02,0,0,0,0,0.034828
2022/05/19 03:17:00.000,n,146,1.8,1.8,2.16,18.5,81,1020.02,0,0,0,0,0.032196
2022/05/19 03:18:00.012,n,286,2.52,0.36,6.48,18.5,80.8,1020.02,0,0,0,0,0.033073
2022/05/19 03:19:00.000,n,169,2.16,0.36,5.4,18.5,80.8,1020.12,0,0,0,0,0.033073
2022/05/19 03:20:00.000,n,245,3.6,2.16,4.32,18.5,81,1020.12,0,0,0,0,0.031319
2022/05/19 03:21:00.003,n,276,4.68,4.32,5.04,18.5,80.7,1020.12,0,0,0,0,0.032196
2022/05/19 03:22:00.001,n,166,3.96,1.8,6.12,18.5,80.4,1020.12,0,0,0,0,0.030479
2022/05/19 03:23:00.000,n,77,2.52,1.8,2.88,18.4,80.4,1020.22,0,0,0,0,0.033073
2022/05/19 03:24:00.000,n,301,2.52,1.8,5.04,18.4,80.5,1020.22,0,0,0,0,0.027847
2022/05/19 03:25:00.008,n,266,5.4,5.04,5.76,18.4,80.5,1020.22,0,0,0,0,0.032196
2022/05/19 03:26:00.006,n,304,3.96,3.6,4.32,18.4,80.4,1020.22,0,0,0,0,0.030479
2022/05/19 03:27:00.001,n,246,1.8,1.44,4.32,18.4,80.4,1020.22,0,0,0,0,0.02697
2022/05/19 03:28:00.000,n,136,3.96,3.6,5.04,18.4,80.4,1020.22,0,0,0,0,0.028687
2022/05/19 03:29:00.000,n,166,0.72,0.36,0.72,18.4,80.5,1020.32,0,0,0,0,0.031319
2022/05/19 03:30:00.000,n,143,5.04,4.32,5.76,18.4,80.7,1020.32,0,0,0,0,0.027847
2022/05/19 03:31:00.000,n,176,9.72,7.56,12.96,18.4,80.4,1020.32,0,0,0,0,0.028687
2022/05/19 03:32:00.005,n,182,8.28,6.48,11.16,18.4,80.4,1020.32,0,0,0,0,0.030479
2022/05/19 03:33:00.002,n,153,9.36,6.84,14.4,18.4,80.3,1020.32,0,0,0,0,0.027847
2022/05/19 03:34:00.000,n,177,9,5.76,12.24,18.4,80.1,1020.32,0,0,0,0,0.02697
2022/05/19 03:35:00.013,n,189,4.32,3.24,6.48,18.4,80.2,1020.32,0,0,0,0,0.02346
2022/05/19 03:36:00.010,n,214,7.92,7.56,9,18.4,79.5,1020.32,0,0,0,0,0.024376
2022/05/19 03:37:00.000,n,164,6.48,5.04,10.8,18.4,79.7,1020.32,0,0,0,0,0.026093
2022/05/19 03:38:00.000,n,196,4.32,2.16,6.12,18.4,79.9,1020.32,0,0,0,0,0.02346
2022/05/19 03:39:00.003,n,136,4.68,4.32,5.4,18.4,79.6,1020.32,0,0,0,0,0.022621
2022/05/19 03:40:00.000,n,184,3.24,0.36,6.48,18.4,79.5,1020.32,0,0,0,0,0.024376
2022/05/19 03:41:00.000,n,167,4.68,3.6,9.36,18.4,79.6,1020.32,0,0,0,0,0.024376
2022/05/19 03:42:00.010,n,240,3.96,1.44,5.4,18.4,79.5,1020.32,0,0,0,0,0.020866
2022/05/19 03:43:00.008,n,179,3.24,2.16,7.92,18.4,79.6,1020.32,0,0,0,0,0.022621
2022/05/19 03:44:00.005,n,187,9.36,7.2,13.32,18.4,79.3,1020.32,0,0,0,0,0.021744
2022/05/19 03:45:00.002,n,159,5.4,3.96,9.72,18.4,79.2,1020.32,0,0,0,0,0.020866
2022/05/19 03:46:00.000,n,156,5.04,3.24,7.2,18.4,79.1,1020.32,0,0,0,0,0.024376
2022/05/19 03:47:00.000,n,136,2.52,1.08,4.32,18.4,79.1,1020.32,0,0,0,0,0.018272
2022/05/19 03:48:00.000,n,180,11.52,8.64,14.76,18.3,78.7,1020.32,0,0,0,0,0.020027
2022/05/19 03:49:00.000,n,198,9.36,8.64,9.72,18.3,78.4,1020.32,0,0,0,0,0.01915
2022/05/19 03:50:00.005,n,170,11.16,6.84,13.32,18.3,78.6,1020.32,0,0,0,0,0.022621
2022/05/19 03:51:00.000,n,186,11.16,7.56,15.12,18.3,78.5,1020.32,0,0,0,0,0.028725
2022/05/19 03:52:00.000,n,184,11.88,9,15.84,18.2,78,1020.22,0,0,0,0,0.027847
2022/05/19 03:53:00.009,n,178,14.04,10.8,19.44,18.2,77.2,1020.32,0,0,0,0,0.02697
2022/05/19 03:54:00.006,n,168,13.68,9.72,18.72,18.2,77.6,1020.32,0,0,0,0,0.028725
2022/05/19 03:55:00.000,n,179,9.36,8.28,12.6,18.2,77.5,1020.32,0,0,0,0,0.025253
2022/05/19 03:56:00.000,n,179,5.76,3.96,9.72,18.2,77.4,1020.32,0,0,0,0,0.022621
2022/05/19 03:57:00.000,n,181,11.52,9.72,14.76,18.2,77,1020.32,0,0,0,0,0.023499
2022/05/19 03:58:00.000,n,163,14.04,7.56,18.359998,18.2,76.9,1020.32,0,0,0,0,0.023499
2022/05/19 03:59:00.007,n,171,7.56,3.6,12.6,18.2,76.8,1020.32,0,0,0,0,0.021744
2022/05/19 04:00:00.005,n,161,6.12,1.44,9.36,18.2,76.8,1020.32,0,0,0,0,0.021744
2022/05/19 04:01:00.001,n,148,5.04,1.08,10.8,18.2,76.8,1020.22,0,0,0,0,0.01915
2022/05/19 04:02:00.014,n,172,13.32,9.72,17.28,18.1,76.7,1020.22,0,0,0,0,0.018272
2022/05/19 04:03:00.011,n,188,10.08,7.92,13.68,18.1,76.3,1020.12,0,0,0,0,0.016518
2022/05/19 04:04:00.000,n,179,10.440002,7.92,14.76,18.1,76.5,1020.12,0,0,0,0,0.02697
2022/05/19 04:05:00.001,n,173,15.12,11.52,18.72,18.1,76.2,1020.12,0,0,0,0,0.033073
2022/05/19 04:06:00.000,n,180,10.440002,7.92,13.32,18.1,76.4,1020.22,0,0,0,0,0.028725
2022/05/19 04:07:00.000,n,191,10.8,10.08,11.88,18.1,76.1,1020.22,0,0,0,0,0.027847
2022/05/19 04:08:00.000,n,122,2.16,0.72,5.04,18.1,76.2,1020.22,0,0,0,0,0.025253
2022/05/19 04:09:00.006,n,188,7.92,5.4,11.52,18.1,76.1,1020.22,0,0,0,0,0.024376
2022/05/19 04:10:00.003,n,150,3.96,1.8,7.2,18.1,75.9,1020.22,0,0,0,0,0.024376
2022/05/19 04:11:00.000,n,179,5.76,4.32,8.28,18.1,75.8,1020.22,0,0,0,0,0.026131
2022/05/19 04:12:00.014,n,165,16.919998,13.68,19.08,18,75.6,1020.22,0,0,0,0,0.023499
2022/05/19 04:13:00.000,n,177,10.08,7.56,13.32,18,75.6,1020.22,0,0,0,0,0.023499
2022/05/19 04:14:00.000,n,162,10.08,6.48,13.32,18,75.9,1020.12,0,0,0,0,0.024376
2022/05/19 04:15:00.005,n,208,9,8.28,9.36,18,75.7,1020.12,0,0,0,0,0.022621
2022/05/19 04:16:00.002,n,305,1.8,1.08,2.52,18,75.7,1020.12,0,0,0,0,0.020905
2022/05/19 04:17:00.000,n,173,10.440002,7.56,14.04,17.9,75.6,1020.02,0,0,0,0,0.022621
2022/05/19 04:18:00.000,n,191,5.4,2.52,7.56,17.9,75.7,1020.02,0,0,0,0,0.01915
2022/05/19 04:19:00.010,n,170,11.16,6.84,12.24,17.9,75.5,1020.02,0,0,0,0,0.020905
2022/05/19 04:20:00.007,n,54,2.52,0.72,6.84,17.9,76.1,1020.02,0,0,0,0,0.020905
2022/05/19 04:21:00.004,n,198,6.84,3.96,10.440002,17.9,75.5,1020.02,0,0,0,0,0.023499
2022/05/19 04:22:00.000,n,170,8.64,5.4,11.52,17.9,75.4,1020.02,0,0,0,0,0.020905
2022/05/19 04:23:00.000,n,182,6.84,4.68,9.36,17.9,75.4,1020.02,0,0,0,0,0.024376
2022/05/19 04:24:00.000,n,191,5.4,3.96,9,17.9,75.3,1020.02,0,0,0,0,0.032196
2022/05/19 04:25:00.000,n,202,3.24,1.8,6.84,17.9,75.4,1020.12,0,0,0,0,0.028725
2022/05/19 04:26:00.005,n,130,5.4,2.88,6.84,17.9,75.5,1020.12,0,0,0,0,0.027008
2022/05/19 04:27:00.002,n,198,6.48,4.32,8.28,17.9,75.5,1020.12,0,0,0,0,0.027847
2022/05/19 04:28:00.000,n,173,9.72,5.4,15.84,17.8,75.5,1020.12,0,0,0,0,0.027008
2022/05/19 04:29:00.012,n,156,13.68,9.72,16.2,17.8,75.6,1020.12,0,0,0,0,0.024376
2022/05/19 04:30:00.009,n,206,3.6,1.44,9.36,17.8,75.8,1020.12,0,0,0,0,0.024376
2022/05/19 04:31:00.000,n,196,14.76,12.96,16.56,17.8,76,1020.12,0,0,0,0,0.025215
2022/05/19 04:32:00.003,n,178,5.76,4.32,10.440002,17.9,76.2,1020.12,0,0,0,0,0.024376
2022/05/19 04:33:00.000,n,182,8.28,5.4,9.36,17.8,76.2,1020.22,0,0,0,0,0.025215
2022/05/19 04:34:00.000,n,324,1.08,0.36,4.68,17.8,76.5,1020.22,0,0,0,0,0.024376
2022/05/19 04:35:00.000,n,144,8.28,3.96,12.24,17.8,76.6,1020.22,0,0,0,0,0.024376
2022/05/19 04:36:00.007,n,163,5.4,3.24,8.28,17.8,76.8,1020.22,0,0,0,0,0.023499
2022/05/19 04:37:00.004,n,164,5.76,3.96,8.28,17.8,77,1020.22,0,0,0,0,0.022621
2022/05/19 04:38:00.001,n,192,8.64,6.84,10.440002,17.8,77.2,1020.22,0,0,0,0,0.026093
2022/05/19 04:39:00.015,n,184,8.64,7.2,12.6,17.8,77.3,1020.22,0,0,0,0,0.024376
2022/05/19 04:40:00.000,n,172,9.72,6.48,11.88,17.8,77.5,1020.22,0,0,0,0,0.022621
2022/05/19 04:41:00.000,n,205,7.92,2.88,11.88,17.8,77.7,1020.22,0,0,0,0,0.021782
2022/05/19 04:42:00.000,n,177,5.4,3.24,7.56,17.8,78,1020.22,0,0,0,0,0.01915
2022/05/19 04:43:00.003,n,240,5.76,4.68,6.48,17.8,78.3,1020.22,0,0,0,0,0.01915
2022/05/19 04:44:00.001,n,16,4.32,3.24,4.68,17.8,78.9,1020.22,0,0,0,0,0.020866
2022/05/19 04:45:00.000,n,247,5.76,1.08,8.64,17.8,79.1,1020.32,0,0,0,0,0.019989
2022/05/19 04:46:00.010,n,270,1.44,0.36,2.88,17.9,79.2,1020.32,0,0,0,0,0.01915
2022/05/19 04:47:00.007,n,270,2.16,0.72,4.32,17.9,79.2,1020.32,0,0,0,0,0.01915
2022/05/19 04:48:00.005,n,281,2.16,1.08,4.32,17.9,79.4,1020.32,0,0,0,0,0.020866
2022/05/19 04:49:00.000,n,249,3.6,2.88,4.68,17.9,79.6,1020.32,0,0,0,0,0.01915
2022/05/19 04:50:00.000,n,184,1.08,0.72,1.8,17.9,79.6,1020.42,0,0,0,0,0.01915
2022/05/19 04:51:00.000,n,265,4.68,3.6,5.76,17.9,79.6,1020.42,0,0,0,0,0.019989
2022/05/19 04:52:00.000,n,264,6.84,5.4,7.56,17.9,79.4,1020.42,0,0,0,0,0.018272
2022/05/19 04:53:00.007,n,278,1.44,0.36,3.24,17.8,79.7,1020.42,0,0,0,0,0.019989
2022/05/19 04:54:00.005,n,255,5.4,4.68,6.12,17.8,79.7,1020.42,0,0,0,0,0.019989